EJU47RV EGPH-EHAM

Flight info

Callsign EJU47RV
Flight time 1h 5m
Altitude 37000
Route TLA Y96 OTBUN DCT ERKIT N110 DOLAS L603 LAMSO
Aircraft A319/M-SDE3FGHIRWY/LB1

Departure

Time 2026-05-04 19:05
Airport Edinburgh Airport (EGPH)

Arrival

Time 2026-05-04 20:11
Airport Amsterdam Airport Schiphol (EHAM)
Time Latitude Longitude Altitude Speed Heading
2026-05-04 18:29 55.94702 -3.36601 117 ft 0 kts 89°
2026-05-04 18:44 55.94702 -3.36602 117 ft 0 kts 89°
2026-05-04 18:54 55.94702 -3.36633 112 ft 3 kts 89°
2026-05-04 18:54 55.94701 -3.36668 114 ft 3 kts 86°
2026-05-04 18:54 55.94699 -3.36704 112 ft 3 kts 71°
2026-05-04 18:55 55.94690 -3.36731 114 ft 3 kts 13°
2026-05-04 18:55 55.94686 -3.36734 114 ft 0 kts 359°
2026-05-04 18:57 55.94692 -3.36734 113 ft 3 kts 358°
2026-05-04 18:57 55.94722 -3.36736 115 ft 6 kts 358°
2026-05-04 18:57 55.94765 -3.36760 113 ft 6 kts 328°
2026-05-04 18:57 55.94811 -3.36777 116 ft 7 kts
2026-05-04 18:58 55.94859 -3.36778 116 ft 6 kts 359°
2026-05-04 18:58 55.94892 -3.36799 113 ft 5 kts 329°
2026-05-04 18:58 55.94921 -3.36830 116 ft 5 kts 334°
2026-05-04 18:58 55.94953 -3.36813 114 ft 6 kts 46°
2026-05-04 18:59 55.94974 -3.36754 114 ft 5 kts 59°
2026-05-04 18:59 55.94996 -3.36688 115 ft 8 kts 59°
2026-05-04 18:59 55.95028 -3.36594 116 ft 10 kts 58°
2026-05-04 18:59 55.95069 -3.36476 114 ft 12 kts 59°
2026-05-04 19:00 55.95118 -3.36331 116 ft 15 kts 59°
2026-05-04 19:00 55.95175 -3.36159 116 ft 17 kts 59°
2026-05-04 19:00 55.95242 -3.35964 115 ft 20 kts 58°
2026-05-04 19:00 55.95316 -3.35744 116 ft 22 kts 59°
2026-05-04 19:01 55.95391 -3.35522 115 ft 14 kts 58°
2026-05-04 19:01 55.95421 -3.35435 116 ft 8 kts 57°
2026-05-04 19:01 55.95477 -3.35416 116 ft 9 kts 335°
2026-05-04 19:01 55.95499 -3.35440 115 ft 0 kts 329°
2026-05-04 19:03 55.95500 -3.35440 115 ft 1 kts 329°
2026-05-04 19:04 55.95517 -3.35459 115 ft 5 kts 329°
2026-05-04 19:04 55.95562 -3.35508 112 ft 10 kts 326°
2026-05-04 19:04 55.95572 -3.35563 113 ft 5 kts 239°
2026-05-04 19:04 55.95546 -3.35641 113 ft 24 kts 239°
2026-05-04 19:05 55.95305 -3.36351 110 ft 106 kts 238°
2026-05-04 19:05 55.94829 -3.37770 325 ft 143 kts 243°
2026-05-04 19:05 55.94324 -3.39249 1112 ft 139 kts 241°
2026-05-04 19:05 55.93778 -3.40829 1669 ft 159 kts 241°
2026-05-04 19:06 55.93167 -3.42604 2161 ft 179 kts 242°
2026-05-04 19:06 55.92472 -3.44648 2587 ft 206 kts 242°
2026-05-04 19:06 55.91703 -3.46898 3360 ft 218 kts 242°
2026-05-04 19:06 55.90889 -3.49248 4005 ft 223 kts 241°
2026-05-04 19:07 55.90072 -3.51619 4668 ft 226 kts 242°
2026-05-04 19:07 55.89265 -3.54052 5320 ft 229 kts 243°
2026-05-04 19:07 55.88447 -3.56511 6147 ft 233 kts 239°
2026-05-04 19:07 55.87181 -3.58332 7050 ft 244 kts 202°
2026-05-04 19:08 55.85472 -3.58402 7952 ft 255 kts 164°
2026-05-04 19:08 55.83993 -3.56624 8869 ft 264 kts 133°
2026-05-04 19:08 55.82769 -3.54174 9808 ft 267 kts 142°
2026-05-04 19:08 55.81173 -3.52408 10405 ft 279 kts 158°
2026-05-04 19:09 55.79270 -3.51224 10781 ft 301 kts 166°
2026-05-04 19:09 55.77156 -3.50103 11173 ft 324 kts 166°
2026-05-04 19:09 55.74962 -3.48921 11896 ft 333 kts 166°
2026-05-04 19:09 55.72757 -3.47720 12699 ft 339 kts 166°
2026-05-04 19:10 55.70463 -3.46462 13582 ft 343 kts 166°
2026-05-04 19:10 55.68167 -3.45198 14337 ft 347 kts 166°
2026-05-04 19:10 55.65842 -3.43923 15078 ft 352 kts 166°
2026-05-04 19:10 55.63492 -3.42639 15801 ft 356 kts 166°
2026-05-04 19:11 55.61116 -3.41317 16494 ft 361 kts 163°
2026-05-04 19:11 55.58899 -3.39143 17170 ft 371 kts 143°
2026-05-04 19:11 55.57179 -3.35702 17866 ft 379 kts 122°
2026-05-04 19:11 55.55884 -3.31613 18535 ft 383 kts 119°
2026-05-04 19:12 55.54605 -3.27461 19140 ft 387 kts 119°
2026-05-04 19:12 55.52013 -3.19037 20400 ft 393 kts 120°
2026-05-04 19:12 55.50697 -3.14783 21015 ft 397 kts 120°
2026-05-04 19:13 55.49366 -3.10493 21647 ft 400 kts 120°
2026-05-04 19:13 55.48020 -3.06184 22260 ft 404 kts 120°
2026-05-04 19:13 55.46654 -3.01835 22888 ft 407 kts 121°
2026-05-04 19:13 55.45276 -2.97455 23504 ft 410 kts 121°
2026-05-04 19:14 55.43884 -2.93040 24024 ft 414 kts 121°
2026-05-04 19:14 55.42483 -2.88599 24543 ft 417 kts 121°
2026-05-04 19:14 55.41070 -2.84123 25043 ft 419 kts 121°
2026-05-04 19:14 55.39644 -2.79620 25543 ft 422 kts 121°
2026-05-04 19:15 55.38207 -2.75101 26028 ft 425 kts 121°
2026-05-04 19:15 55.36757 -2.70548 26507 ft 428 kts 121°
2026-05-04 19:15 55.35294 -2.65965 26981 ft 431 kts 121°
2026-05-04 19:15 55.33825 -2.61363 27445 ft 433 kts 121°
2026-05-04 19:16 55.32343 -2.56729 27915 ft 436 kts 121°
2026-05-04 19:16 55.30855 -2.52079 28372 ft 439 kts 121°
2026-05-04 19:16 55.29308 -2.47442 28827 ft 441 kts 125°
2026-05-04 19:16 55.27424 -2.43208 29258 ft 442 kts 134°
2026-05-04 19:17 55.25185 -2.39516 29702 ft 442 kts 143°
2026-05-04 19:17 55.22735 -2.36254 30137 ft 444 kts 145°
2026-05-04 19:17 55.20263 -2.32991 30513 ft 446 kts 145°
2026-05-04 19:17 55.17782 -2.29707 30881 ft 448 kts 145°
2026-05-04 19:18 55.15286 -2.26403 31247 ft 451 kts 144°
2026-05-04 19:18 55.12782 -2.23091 31627 ft 452 kts 144°
2026-05-04 19:18 55.10279 -2.19782 32132 ft 450 kts 144°
2026-05-04 19:18 55.07789 -2.16492 32643 ft 449 kts 144°
2026-05-04 19:19 55.05299 -2.13211 33160 ft 447 kts 144°
2026-05-04 19:19 55.02816 -2.09946 33661 ft 446 kts 144°
2026-05-04 19:19 55.00341 -2.06700 34152 ft 445 kts 144°
2026-05-04 19:19 54.97870 -2.03467 34566 ft 444 kts 144°
2026-05-04 19:20 54.95397 -2.00241 34979 ft 443 kts 144°
2026-05-04 19:20 54.92937 -1.97035 35368 ft 442 kts 144°
2026-05-04 19:20 54.90476 -1.93828 35741 ft 442 kts 144°
2026-05-04 19:20 54.88021 -1.90626 36102 ft 441 kts 144°
2026-05-04 19:21 54.85572 -1.87438 36454 ft 440 kts 144°
2026-05-04 19:21 54.83083 -1.84210 36799 ft 440 kts 144°
2026-05-04 19:21 54.80656 -1.81067 37000 ft 443 kts 144°
2026-05-04 19:22 54.75699 -1.74676 37028 ft 440 kts 144°
2026-05-04 19:22 54.70796 -1.68366 37029 ft 439 kts 144°
2026-05-04 19:23 54.65894 -1.62074 37025 ft 438 kts 144°
2026-05-04 19:23 54.61000 -1.55809 37025 ft 438 kts 144°
2026-05-04 19:24 54.56105 -1.49565 37028 ft 437 kts 144°
2026-05-04 19:24 54.51212 -1.43336 37025 ft 437 kts 144°
2026-05-04 19:25 54.46312 -1.37122 37032 ft 437 kts 144°
2026-05-04 19:25 54.41417 -1.30927 37022 ft 437 kts 144°
2026-05-04 19:26 54.36515 -1.24743 37023 ft 437 kts 144°
2026-05-04 19:26 54.31792 -1.18242 37032 ft 437 kts 130°
2026-05-04 19:26 54.30112 -1.13936 37031 ft 436 kts 117°
2026-05-04 19:27 54.28709 -1.09319 37030 ft 437 kts 117°
2026-05-04 19:27 54.25922 -1.00087 37029 ft 437 kts 117°
2026-05-04 19:28 54.23123 -0.90846 37033 ft 437 kts 117°
2026-05-04 19:28 54.20320 -0.81611 37045 ft 438 kts 117°
2026-05-04 19:29 54.17504 -0.72406 37046 ft 437 kts 117°
2026-05-04 19:29 54.14645 -0.63245 37047 ft 437 kts 118°
2026-05-04 19:30 54.11700 -0.54172 37049 ft 437 kts 119°
2026-05-04 19:30 54.09245 -0.46652 37050 ft 437 kts 119°
2026-05-04 19:31 54.06301 -0.37606 37045 ft 437 kts 119°
2026-05-04 19:31 54.03367 -0.28558 37049 ft 437 kts 119°
2026-05-04 19:32 54.00416 -0.19523 37051 ft 437 kts 119°
2026-05-04 19:32 53.97463 -0.10512 37050 ft 436 kts 119°
2026-05-04 19:33 53.94502 -0.01522 37048 ft 436 kts 120°
2026-05-04 19:33 53.91530 0.07464 37053 ft 436 kts 119°
2026-05-04 19:34 53.88564 0.16433 37060 ft 436 kts 120°
2026-05-04 19:34 53.86844 0.21611 37061 ft 436 kts 120°
2026-05-04 19:35 53.83865 0.30559 37066 ft 436 kts 120°
2026-05-04 19:35 53.80873 0.39480 37067 ft 436 kts 120°
2026-05-04 19:36 53.77877 0.48390 37068 ft 435 kts 120°
2026-05-04 19:36 53.74885 0.57280 37070 ft 435 kts 120°
2026-05-04 19:37 53.71884 0.66150 37068 ft 434 kts 120°
2026-05-04 19:37 53.68876 0.74993 37069 ft 434 kts 120°
2026-05-04 19:38 53.65861 0.83829 37066 ft 435 kts 120°
2026-05-04 19:38 53.62836 0.92668 37071 ft 435 kts 121°
2026-05-04 19:39 53.59812 1.01480 37067 ft 435 kts 121°
2026-05-04 19:39 53.56784 1.10306 37055 ft 435 kts 121°
2026-05-04 19:39 53.55263 1.14720 36815 ft 436 kts 121°
2026-05-04 19:40 53.53740 1.19118 36558 ft 435 kts 121°
2026-05-04 19:40 53.52218 1.23501 36231 ft 434 kts 121°
2026-05-04 19:40 53.50696 1.27880 35625 ft 434 kts 121°
2026-05-04 19:40 53.49175 1.32252 35069 ft 432 kts 121°
2026-05-04 19:41 53.47664 1.36587 34647 ft 428 kts 121°
2026-05-04 19:41 53.46161 1.40884 34294 ft 426 kts 121°
2026-05-04 19:41 53.44665 1.45158 33912 ft 422 kts 121°
2026-05-04 19:41 53.43185 1.49377 33538 ft 419 kts 121°
2026-05-04 19:42 53.41707 1.53592 33212 ft 418 kts 121°
2026-05-04 19:42 53.40238 1.57781 32888 ft 416 kts 121°
2026-05-04 19:42 53.38775 1.61948 32563 ft 414 kts 121°
2026-05-04 19:42 53.37316 1.66087 32249 ft 412 kts 121°
2026-05-04 19:43 53.35863 1.70193 31984 ft 411 kts 122°
2026-05-04 19:43 53.34399 1.74320 31732 ft 410 kts 122°
2026-05-04 19:43 53.32947 1.78410 31467 ft 409 kts 122°
2026-05-04 19:43 53.31498 1.82489 31211 ft 407 kts 122°
2026-05-04 19:44 53.30053 1.86557 30956 ft 406 kts 122°
2026-05-04 19:44 53.28611 1.90619 30710 ft 405 kts 123°
2026-05-04 19:44 53.27174 1.94662 30467 ft 404 kts 123°
2026-05-04 19:44 53.25737 1.98689 30215 ft 403 kts 123°
2026-05-04 19:45 53.24300 2.02701 29943 ft 402 kts 123°
2026-05-04 19:45 53.22864 2.06697 29654 ft 401 kts 123°
2026-05-04 19:45 53.21433 2.10683 29322 ft 400 kts 124°
2026-05-04 19:45 53.20005 2.14642 28889 ft 398 kts 124°
2026-05-04 19:46 53.18582 2.18589 28473 ft 396 kts 124°
2026-05-04 19:46 53.17167 2.22520 28059 ft 394 kts 124°
2026-05-04 19:46 53.15759 2.26425 27657 ft 393 kts 124°
2026-05-04 19:46 53.14352 2.30311 27360 ft 391 kts 124°
2026-05-04 19:47 53.12951 2.34183 27089 ft 390 kts 124°
2026-05-04 19:47 53.11553 2.38045 26819 ft 389 kts 124°
2026-05-04 19:47 53.10136 2.41945 26568 ft 388 kts 124°
2026-05-04 19:47 53.08743 2.45773 26313 ft 387 kts 124°
2026-05-04 19:48 53.07349 2.49603 26056 ft 386 kts 124°
2026-05-04 19:48 53.05963 2.53407 25804 ft 385 kts 124°
2026-05-04 19:48 53.04572 2.57206 25552 ft 384 kts 124°
2026-05-04 19:48 53.03183 2.60985 25302 ft 383 kts 125°
2026-05-04 19:49 53.01793 2.64755 25056 ft 382 kts 125°
2026-05-04 19:49 53.00407 2.68506 24812 ft 381 kts 124°
2026-05-04 19:49 52.99022 2.72257 24569 ft 380 kts 124°
2026-05-04 19:49 52.97642 2.75997 24330 ft 379 kts 124°
2026-05-04 19:50 52.96267 2.79735 24089 ft 379 kts 124°
2026-05-04 19:50 52.94899 2.83454 23856 ft 378 kts 124°
2026-05-04 19:50 52.93529 2.87161 23614 ft 377 kts 124°
2026-05-04 19:50 52.92161 2.90849 23300 ft 373 kts 124°
2026-05-04 19:51 52.90806 2.94498 22837 ft 370 kts 124°
2026-05-04 19:51 52.89464 2.98107 22375 ft 367 kts 124°
2026-05-04 19:51 52.88125 3.01694 21916 ft 365 kts 124°
2026-05-04 19:51 52.86791 3.05259 21461 ft 363 kts 124°
2026-05-04 19:52 52.85464 3.08804 21016 ft 361 kts 124°
2026-05-04 19:52 52.84146 3.12331 20579 ft 359 kts 124°
2026-05-04 19:52 52.82839 3.15839 20132 ft 357 kts 124°
2026-05-04 19:52 52.81536 3.19325 19696 ft 356 kts 124°
2026-05-04 19:53 52.80234 3.22798 19253 ft 355 kts 124°
2026-05-04 19:53 52.78937 3.26249 18829 ft 353 kts 123°
2026-05-04 19:53 52.77639 3.29695 18400 ft 352 kts 123°
2026-05-04 19:53 52.76347 3.33124 17929 ft 351 kts 123°
2026-05-04 19:54 52.75065 3.36527 17508 ft 348 kts 123°
2026-05-04 19:54 52.73787 3.39913 17095 ft 346 kts 123°
2026-05-04 19:54 52.72516 3.43269 16683 ft 344 kts 123°
2026-05-04 19:54 52.71253 3.46594 16284 ft 342 kts 123°
2026-05-04 19:55 52.69991 3.49913 15882 ft 340 kts 123°
2026-05-04 19:55 52.68739 3.53202 15489 ft 338 kts 123°
2026-05-04 19:55 52.67506 3.56493 15089 ft 337 kts 122°
2026-05-04 19:55 52.66290 3.59785 14701 ft 335 kts 122°
2026-05-04 19:56 52.65085 3.63066 14317 ft 334 kts 122°
2026-05-04 19:56 52.63886 3.66330 13943 ft 333 kts 122°
2026-05-04 19:56 52.62686 3.69581 13520 ft 332 kts 122°
2026-05-04 19:56 52.61486 3.72814 13126 ft 330 kts 122°
2026-05-04 19:57 52.60292 3.76019 12722 ft 327 kts 122°
2026-05-04 19:57 52.59105 3.79204 12322 ft 325 kts 122°
2026-05-04 19:57 52.57930 3.82363 11926 ft 323 kts 122°
2026-05-04 19:57 52.56758 3.85507 11520 ft 321 kts 123°
2026-05-04 19:58 52.55595 3.88620 11107 ft 319 kts 123°
2026-05-04 19:58 52.54432 3.91726 10702 ft 318 kts 123°
2026-05-04 19:58 52.53286 3.94780 10481 ft 309 kts 123°
2026-05-04 19:58 52.52275 3.97847 10237 ft 303 kts 114°
2026-05-04 19:59 52.51503 4.01039 9949 ft 299 kts 112°
2026-05-04 19:59 52.50737 4.04196 9634 ft 296 kts 112°
2026-05-04 19:59 52.49977 4.07323 9314 ft 294 kts 112°
2026-05-04 19:59 52.49220 4.10433 8989 ft 292 kts 112°
2026-05-04 20:00 52.48464 4.13522 8678 ft 291 kts 112°
2026-05-04 20:00 52.47712 4.16591 8339 ft 289 kts 112°
2026-05-04 20:00 52.46965 4.19632 7936 ft 287 kts 112°
2026-05-04 20:00 52.46222 4.22659 7612 ft 285 kts 112°
2026-05-04 20:01 52.45483 4.25672 7308 ft 284 kts 112°
2026-05-04 20:01 52.44759 4.28612 7021 ft 283 kts 112°
2026-05-04 20:01 52.44025 4.31592 6726 ft 281 kts 112°
2026-05-04 20:01 52.43295 4.34552 6413 ft 280 kts 112°
2026-05-04 20:02 52.42566 4.37492 6050 ft 276 kts 112°
2026-05-04 20:02 52.41854 4.40366 5743 ft 270 kts 112°
2026-05-04 20:02 52.41158 4.43173 5482 ft 262 kts 112°
2026-05-04 20:02 52.40408 4.45837 5210 ft 255 kts 125°
2026-05-04 20:03 52.39106 4.47689 4914 ft 248 kts 156°
2026-05-04 20:03 52.37452 4.48234 4639 ft 241 kts 179°
2026-05-04 20:03 52.35791 4.48216 4377 ft 237 kts 182°
2026-05-04 20:03 52.34148 4.48132 4067 ft 235 kts 182°
2026-05-04 20:04 52.32525 4.48033 3763 ft 232 kts 182°
2026-05-04 20:04 52.30923 4.47922 3512 ft 228 kts 182°
2026-05-04 20:04 52.29353 4.47805 3257 ft 224 kts 182°
2026-05-04 20:04 52.27811 4.47683 3005 ft 221 kts 182°
2026-05-04 20:05 52.26287 4.47547 2748 ft 218 kts 182°
2026-05-04 20:05 52.24834 4.47801 2541 ft 210 kts 159°
2026-05-04 20:05 52.23508 4.48704 2392 ft 203 kts 153°
2026-05-04 20:05 52.22244 4.49650 2259 ft 196 kts 152°
2026-05-04 20:06 52.21499 4.50432 2162 ft 190 kts 129°
2026-05-04 20:06 52.21003 4.52219 2075 ft 179 kts 90°
2026-05-04 20:06 52.21324 4.54108 2009 ft 174 kts 56°
2026-05-04 20:06 52.21980 4.55772 2009 ft 174 kts 56°
2026-05-04 20:07 52.22630 4.57451 2012 ft 175 kts 56°
2026-05-04 20:07 52.23277 4.59122 1988 ft 176 kts 56°
2026-05-04 20:07 52.23928 4.60805 1885 ft 172 kts 56°
2026-05-04 20:07 52.24567 4.62460 1634 ft 168 kts 56°
2026-05-04 20:08 52.25172 4.64027 1405 ft 162 kts 56°
2026-05-04 20:08 52.25753 4.65531 1192 ft 151 kts 55°
2026-05-04 20:08 52.26294 4.66934 1005 ft 142 kts 55°
2026-05-04 20:08 52.26803 4.68255 809 ft 133 kts 54°
2026-05-04 20:09 52.27288 4.69512 633 ft 130 kts 55°
2026-05-04 20:09 52.27768 4.70757 458 ft 128 kts 54°
2026-05-04 20:09 52.28244 4.71988 291 ft 128 kts 56°
2026-05-04 20:09 52.28715 4.73221 117 ft 127 kts 54°
2026-05-04 20:10 52.29182 4.74434 4 ft 119 kts 55°
2026-05-04 20:10 52.29564 4.75423 -2 ft 88 kts 58°
2026-05-04 20:10 52.29848 4.76157 -4 ft 64 kts 58°
2026-05-04 20:10 52.30056 4.76702 -2 ft 51 kts 57°
2026-05-04 20:11 52.30228 4.77150 -3 ft 38 kts 58°
2026-05-04 20:11 52.30387 4.77376 -2 ft 14 kts 27°
2026-05-04 20:11 52.30478 4.77406 -1 ft 14 kts 337°
2026-05-04 20:11 52.30556 4.77457 -1 ft 15 kts 56°
2026-05-04 20:12 52.30631 4.77578 -1 ft 16 kts 19°
2026-05-04 20:12 52.30754 4.77596 -1 ft 19 kts
2026-05-04 20:12 52.30894 4.77610 -1 ft 21 kts
2026-05-04 20:12 52.31050 4.77624 -1 ft 24 kts
2026-05-04 20:13 52.31222 4.77640 -1 ft 26 kts
2026-05-04 20:13 52.31406 4.77654 -1 ft 24 kts 357°
2026-05-04 20:13 52.31543 4.77505 -1 ft 23 kts 313°
2026-05-04 20:13 52.31574 4.77246 -1 ft 25 kts 266°
2026-05-04 20:14 52.31564 4.76963 -1 ft 24 kts 266°
2026-05-04 20:14 52.31555 4.76694 -1 ft 24 kts 267°
2026-05-04 20:14 52.31545 4.76420 -1 ft 24 kts 266°
2026-05-04 20:14 52.31535 4.76151 -1 ft 21 kts 266°
2026-05-04 20:15 52.31529 4.75969 -1 ft 10 kts 264°
2026-05-04 20:15 52.31477 4.75920 -1 ft 9 kts 183°
2026-05-04 20:15 52.31407 4.75924 -1 ft 11 kts 177°
2026-05-04 20:15 52.31331 4.75931 -1 ft 11 kts 177°
2026-05-04 20:16 52.31264 4.75936 -1 ft 9 kts 177°
2026-05-04 20:16 52.31208 4.75942 -1 ft 7 kts 175°
2026-05-04 20:16 52.31188 4.75898 -1 ft 5 kts 265°
2026-05-04 20:16 52.31185 4.75837 -1 ft 5 kts 267°
2026-05-04 20:17 52.31185 4.75810 -1 ft 0 kts 267°